Flag for Afghanistan Weather past 2 weeks in Jalalabad, Afghanistan

Now
81 °F

Fog.


Feels Like: 85 °F
Forecast: 76 / 92 °F
Wind: 7 mph from Southwest

Location: Peshawar Airport

Current Time: Aug 2, 2015 at 9:03:04 PM

Latest Report: Aug 2, 2015 at 8:30 PM


Visibility: 2 mi

Pressure: 29.68 "Hg (27.81 "Hg at 572m altitude)

Humidity: 79%

Dew point: 73 °F

Location of JalalabadLocation

Historic Weather in Jalalabad — Graph

°F

Jalalabad temperature yesterday

Maximum temperature yesterday: 81 °F (at 1:30 AM)
Minimum temperature yesterday: 73 °F (at 5:30 AM)
Average temperature yesterday: 76 °F

Past Weeks' High & Low Weather Summary

 TemperatureHumidityPressure
High100 °F (Jul 20, 2:30 PM)100% (Jul 25, 2:30 PM)29.77 "Hg (Jul 25, 2:30 PM)
Low37 °F (Jul 25, 2:30 PM)39% (Jul 29, 3:30 PM)29.53 "Hg (Jul 19, 5:30 AM)
Average85 °F67%29.62 "Hg
* Reported Jul 18 7:30 PM — Aug 2 7:30 PM, Jalalabad, Weather by CustomWeather, © 2015

Note: Actual official high and low records may vary slightly from our data, if they occured in-between our weather recording intervals... More about our weather records

Advertising

Jalalabad weather history for previous 24 hours

 ConditionsComfort  
Time TempWeatherWind HumidityBarometerVisibility
7:30 PM
Sun, Aug 2
81 °FFog.9 mph79%29.65 "Hg2 mi
6:30 PM82 °FBroken clouds.9 mph79%29.65 "Hg2 mi
5:30 PM82 °FBroken clouds.9 mph79%29.65 "Hg2 mi
4:30 PM82 °FBroken clouds.12 mph79%29.65 "Hg2 mi
3:30 PM82 °FDrizzle. Broken clouds.12 mph79%29.65 "Hg2 mi
2:30 PM86 °FBroken clouds.9 mph75%29.65 "Hg2 mi
1:30 PM86 °FBroken clouds.12 mph75%29.68 "Hg2 mi
12:30 PM84 °FBroken clouds.7 mph74%29.71 "Hg2 mi
11:30 AM82 °FBroken clouds.9 mph79%29.71 "Hg2 mi
10:30 AM79 °FFog.9 mph84%29.74 "Hg2 mi
9:30 AM77 °FFog.9 mph89%29.74 "Hg2 mi
8:30 AM77 °FRain. Broken clouds.7 mph89%29.74 "Hg2 mi
7:30 AM75 °FLight rain. Broken clouds.7 mph89%29.74 "Hg2 mi
6:30 AM75 °FLight rain. Broken clouds.12 mph83%29.71 "Hg2 mi
5:30 AM73 °FLight rain. Broken clouds.12 mph94%29.71 "Hg2 mi
4:30 AM73 °FThunderstorms. Partly cloudy.12 mph94%29.68 "Hg2 mi
3:30 AM73 °FThunderstorms. Partly cloudy.12 mph94%29.68 "Hg2 mi
2:30 AM73 °FThunderstorms. Partly cloudy.9 mph94%29.68 "Hg2 mi
1:30 AM73 °FLight rain. Partly cloudy.14 mph94%29.68 "Hg2 mi
12:30 AM73 °FThundershowers. Partly cloudy.7 mph94%29.71 "Hg2 mi
11:30 PM
Sat, Aug 1
75 °FLight rain. Partly cloudy.5 mph94%29.71 "Hg2 mi
10:30 PM75 °FThundershowers. Partly cloudy.7 mph89%29.71 "Hg2 mi
9:30 PM75 °FLight rain. Partly cloudy.No wind94%29.71 "Hg2 mi
Weather by CustomWeather, © 2015

See weather overviewHow to use our weather pages